Theta_e
307 307 308 308 306 308 312 312 308 307 308 309 310 310 310 310 310 310 310 311 313 312 312 312 312 311 311 311 310 310 310 310 310 310 310 310 310 310 310 310 310 309 309 310 309 311 311 310 309 310 310 309 309 309 310 312 313 313 313 313 310 309 309
308 309 310 309 307 308 313 313 309 307 308 309 310 310 310 311 310 310 308 309 312 312 312 312 312 312 311 310 310 311 311 311 311 311 311 310 310 311 311 311 311 310 310 309 309 311 311 309 309 310 310 310 310 309 310 311 313 313 313 313 312 311 310
310 310 310 309 308 308 313 314 310 307 308 309 309 309 310 310 310 309 308 307 309 311 312 312 312 312 311 311 311 311 311 312 311 311 311 311 311 311 311 311 311 311 311 310 310 311 311 310 310 309 310 310 310 310 310 310 312 313 313 312 313 314 313
309 309 309 310 309 309 312 314 312 308 306 308 309 309 310 310 310 310 309 307 307 308 310 312 312 313 312 312 312 311 311 312 312 312 312 311 311 312 312 311 311 311 311 311 311 311 311 311 311 310 309 310 310 310 310 310 311 311 312 313 312 313 313
308 308 308 308 308 309 311 313 313 310 307 307 308 309 310 310 310 310 309 309 308 307 307 308 310 312 312 312 312 312 312 312 312 312 311 311 311 312 313 312 312 312 311 311 311 311 311 311 311 311 310 310 310 310 310 310 310 310 311 311 312 311 311
304 305 307 307 306 308 311 313 313 312 308 306 307 309 310 310 310 310 310 310 310 309 307 306 307 309 310 310 310 309 309 308 308 307 308 308 309 310 311 312 312 312 312 311 311 311 311 311 311 311 310 311 312 311 310 310 310 309 309 309 309 309 309
304 304 305 306 305 306 311 312 312 312 310 306 306 308 309 310 310 309 310 310 310 310 309 307 305 307 307 306 305 305 305 305 305 305 305 305 305 304 306 310 312 312 313 312 311 311 310 310 311 311 311 312 313 312 311 311 311 310 309 308 307 307 307
306 305 304 304 304 305 310 312 312 312 311 307 305 307 309 310 309 309 309 310 310 310 310 309 307 307 308 307 306 306 305 305 305 306 306 305 304 302 302 306 310 312 312 312 312 311 311 310 310 311 311 312 313 313 312 311 311 311 310 309 308 307 307
304 304 304 303 304 304 308 311 311 311 311 309 306 306 308 309 309 309 309 309 310 310 310 310 309 307 308 308 308 309 308 307 306 306 306 306 305 304 303 306 309 310 312 312 312 311 311 311 310 311 311 311 313 313 312 311 312 311 311 311 310 308 308
302 302 303 304 304 303 305 310 312 311 310 309 307 306 307 308 309 309 309 309 309 309 309 311 310 309 308 308 309 310 311 310 308 307 307 307 306 306 307 308 309 310 310 312 312 312 312 311 311 311 310 311 312 313 312 311 312 311 311 311 311 311 310
302 301 302 303 305 304 304 308 311 311 309 308 308 307 306 307 308 308 309 309 309 309 309 310 311 310 308 308 309 310 311 311 311 309 308 307 306 308 309 309 310 310 310 311 313 313 312 312 311 311 311 311 312 313 313 312 311 311 311 311 311 311 311
301 301 301 303 305 305 304 305 310 311 309 307 307 307 307 306 307 308 308 309 308 308 309 310 311 311 309 307 309 310 310 311 312 311 310 308 306 308 310 310 310 310 310 310 312 313 313 313 312 311 311 312 311 312 313 313 311 310 311 312 312 311 311
300 300 301 302 304 305 303 304 308 310 309 308 307 307 307 307 307 307 308 308 308 308 309 310 311 311 309 307 308 310 310 310 311 311 311 309 307 308 310 310 310 310 310 310 311 311 312 313 314 312 312 312 311 312 313 314 311 310 310 311 312 311 311
299 299 300 301 303 304 303 302 305 308 310 309 308 308 307 307 307 307 307 308 308 309 310 311 311 311 310 308 307 308 310 310 310 310 310 310 309 309 310 310 310 310 309 310 310 310 311 313 314 314 313 313 312 312 313 314 313 311 311 311 311 311 311
298 299 299 300 302 304 304 302 303 307 309 310 309 309 308 308 308 308 308 308 309 309 310 310 310 311 311 309 307 307 308 309 310 309 309 310 310 309 309 309 309 310 309 309 309 310 310 311 312 313 314 313 313 312 312 313 314 313 312 312 312 312 311
297 298 299 299 301 303 303 302 302 304 307 309 309 309 309 309 309 309 309 308 308 309 309 309 310 310 311 310 308 306 307 308 309 309 308 308 309 309 309 309 309 309 309 309 309 309 310 310 311 312 312 313 314 313 312 313 314 313 313 312 312 312 312
296 297 298 299 300 302 303 303 302 302 305 308 308 308 308 308 308 307 307 307 306 306 307 307 309 310 310 310 308 307 307 307 307 309 309 307 307 309 309 308 308 308 308 309 309 308 309 309 310 311 312 312 313 313 313 313 314 314 313 312 312 312 312
296 296 297 298 299 301 302 303 302 302 303 305 306 306 306 305 305 305 304 304 304 304 304 305 307 309 310 310 309 309 308 308 308 309 309 308 307 308 308 308 307 306 307 308 308 308 309 309 309 310 311 311 312 312 312 313 314 314 313 313 312 312 312
296 296 297 297 299 300 302 303 303 302 302 303 304 304 304 303 303 303 302 302 302 303 303 304 306 307 309 309 310 310 310 310 309 309 310 309 307 307 308 307 306 305 305 305 305 305 307 309 309 309 309 310 311 312 312 312 313 314 314 313 313 312 312
296 296 296 297 297 299 301 302 303 303 302 302 303 303 303 303 302 302 302 302 302 303 303 304 304 305 307 308 309 309 309 310 310 309 309 309 307 307 308 306 306 306 305 304 304 303 304 307 309 309 309 310 311 311 312 312 312 313 313 313 313 313 312
296 296 296 296 296 297 299 301 302 303 303 303 303 303 303 303 304 303 302 302 302 303 303 303 304 304 305 306 308 308 308 309 309 309 309 308 307 308 308 306 306 306 306 304 304 303 303 305 307 308 308 308 310 311 311 312 312 312 313 313 313 313 312
296 296 296 295 296 296 297 299 300 302 303 303 303 303 303 304 304 304 303 302 302 303 303 303 303 304 304 306 307 307 307 308 308 309 309 308 307 308 308 307 306 306 306 305 304 303 303 304 306 307 307 307 308 310 311 311 311 311 312 312 312 312 312
296 296 295 295 295 296 296 297 298 300 301 302 303 303 303 304 304 304 303 302 302 302 302 303 303 303 304 304 305 306 306 307 308 308 308 307 306 307 308 307 306 306 306 305 304 303 303 304 306 306 307 307 308 308 310 311 311 311 311 311 311 311 311
296 296 295 295 295 295 296 296 297 299 300 301 302 303 303 303 303 303 303 302 302 302 302 302 302 303 303 303 303 304 304 305 306 307 307 307 306 307 308 308 307 306 305 304 305 305 304 304 306 306 306 306 307 308 308 310 310 311 310 310 310 310 310
296 296 295 295 295 295 295 296 296 297 298 299 301 302 303 303 302 303 303 303 302 302 302 302 302 302 302 302 303 303 303 303 304 304 305 305 305 306 306 307 306 305 305 304 304 306 306 306 305 306 306 306 306 307 307 308 309 309 310 310 309 309 309
296 296 295 295 295 295 295 295 296 296 297 298 300 301 302 302 302 302 302 302 302 302 302 302 302 302 302 302 302 302 302 302 302 303 303 303 303 303 304 304 304 304 303 303 303 304 306 307 307 306 307 307 307 307 307 307 308 308 309 309 309 308 307
296 296 295 295 295 294 294 295 295 296 297 298 299 300 301 301 301 302 302 302 302 301 301 301 300 300 300 300 300 300 301 301 301 301 302 302 302 302 302 303 303 303 302 303 303 302 304 306 307 307 307 307 307 307 306 307 307 308 308 307 307 307 306
296 296 295 295 295 294 294 294 295 295 296 297 299 299 299 300 300 301 301 301 300 299 298 298 298 297 297 297 297 299 300 299 300 300 301 301 301 302 302 302 302 302 302 302 302 302 302 305 307 307 307 307 308 307 305 305 306 306 306 305 304 305 306
296 296 295 295 295 294 294 294 294 295 296 297 297 298 298 299 299 299 299 299 299 297 296 296 296 295 295 296 297 299 300 300 300 300 300 300 300 300 301 301 301 301 302 302 302 302 302 304 306 307 308 308 308 307 306 305 305 305 305 304 303 303 304
297 296 295 295 294 294 294 294 294 294 295 296 297 297 297 298 298 298 298 298 298 297 295 295 295 295 295 295 296 299 300 300 300 300 299 299 299 299 300 301 301 301 301 302 302 302 302 304 305 307 308 308 307 307 307 306 306 305 304 304 304 302 301
297 296 295 295 295 294 294 294 294 294 294 295 295 296 297 297 297 297 297 296 296 296 295 294 294 294 294 294 295 297 299 299 299 299 299 298 298 298 299 300 301 302 302 302 302 302 302 303 304 306 307 308 307 306 306 307 306 306 306 305 304 304 302
296 296 296 295 295 294 294 294 294 294 294 294 295 296 297 297 297 296 296 295 294 294 293 293 293 293 293 293 293 295 297 297 297 297 298 298 298 298 298 299 300 302 302 302 302 302 302 302 302 303 305 306 306 306 306 306 305 306 307 306 306 306 304
296 296 296 296 295 295 294 294 294 294 294 294 295 295 296 296 295 295 294 294 293 293 292 292 292 292 292 292 292 293 293 294 296 296 297 298 298 297 297 297 298 300 301 302 302 302 302 302 302 302 303 304 305 305 306 306 305 305 306 306 306 306 305
296 296 296 296 295 295 294 294 294 294 294 294 294 294 294 294 294 294 293 293 293 292 292 292 292 292 292 292 292 292 292 292 294 295 296 296 297 296 295 296 297 298 299 301 302 302 302 302 302 302 302 303 304 305 305 306 305 305 306 306 306 306 305
296 296 296 296 296 295 295 294 294 294 294 294 293 293 293 293 294 293 293 292 292 292 292 292 292 292 292 292 292 292 292 292 292 293 294 294 294 293 293 294 295 296 297 299 300 301 302 302 302 302 302 302 303 304 305 305 305 305 305 305 306 305 305
297 296 296 296 296 295 295 294 294 294 294 294 293 293 293 293 294 294 293 293 292 292 292 292 292 292 292 292 292 292 292 292 292 292 292 291 291 291 291 292 293 294 295 296 298 299 301 302 302 302 302 302 302 302 304 304 305 305 305 305 305 305 304
297 296 296 296 296 295 295 294 294 294 294 294 293 293 293 293 295 296 296 294 292 292 292 292 292 292 292 292 292 292 292 292 292 292 292 291 291 291 291 291 292 292 293 294 295 297 299 300 301 302 302 302 301 301 302 303 304 304 304 305 305 305 304
Wind_Speed
8 8 8 7 8 9 8 6 8 9 10 13 15 17 20 21 24 24 22 20 16 16 16 16 17 18 17 16 16 15 17 18 18 19 19 18 17 17 19 19 19 21 21 21 23 19 17 22 25 26 30 32 31 31 32 34 37 39 39 39 41 43 40
9 8 7 6 6 8 7 5 6 7 8 11 13 16 19 20 22 23 24 22 17 15 15 15 15 15 16 17 18 17 17 17 16 16 16 15 15 16 18 19 20 21 21 23 24 22 22 24 25 28 31 32 33 31 30 31 33 36 40 40 41 44 40
8 7 6 6 6 7 7 5 5 6 7 9 11 14 17 19 20 21 23 23 21 17 14 14 14 14 14 15 16 16 17 16 16 17 16 15 15 16 18 18 19 21 21 22 23 22 21 22 23 27 29 31 34 32 29 29 30 32 38 40 39 42 41
7 7 6 6 5 6 6 5 4 5 5 7 9 13 15 16 18 19 21 23 23 21 17 15 13 13 13 13 13 14 15 16 16 16 17 17 16 15 16 17 18 20 21 20 19 18 18 19 20 24 28 30 31 31 30 28 29 31 34 36 37 39 39
8 7 7 5 5 5 6 5 4 4 4 5 7 10 13 14 15 17 19 21 22 23 22 20 16 13 12 12 12 14 14 15 16 16 18 20 20 17 15 15 16 18 20 19 16 15 16 18 17 19 24 27 27 30 30 27 29 33 33 33 34 36 36
9 9 7 5 5 6 6 5 5 4 4 4 5 8 11 13 14 15 17 19 20 22 23 23 21 18 16 15 15 17 17 18 19 19 19 20 21 21 17 15 16 17 19 19 17 15 15 17 18 17 19 22 21 25 29 28 28 31 32 33 33 34 33
10 10 8 5 6 6 5 5 5 4 3 4 4 6 9 11 12 13 15 17 19 20 21 22 22 22 21 21 21 22 23 24 24 23 23 23 21 22 21 18 17 17 17 19 18 16 16 17 18 17 18 18 17 20 26 28 28 28 29 30 31 32 32
8 9 8 6 7 7 5 4 4 4 3 3 4 5 7 9 10 11 14 16 17 19 20 21 21 21 21 22 23 23 24 26 26 25 26 26 25 25 22 18 17 17 17 18 18 17 16 16 17 17 17 16 16 19 22 24 28 29 26 25 27 30 30
9 9 8 7 6 6 5 4 4 4 4 3 3 4 5 7 8 10 12 14 16 17 19 19 20 20 20 21 22 21 22 24 25 25 25 27 28 27 24 19 17 17 16 17 18 18 16 16 16 16 16 16 16 17 19 22 25 26 26 24 23 25 27
9 9 9 7 6 5 5 4 3 4 4 3 2 2 3 5 7 8 9 12 14 15 17 17 17 17 18 20 20 19 19 20 22 24 24 25 27 28 26 22 19 18 16 16 18 19 17 16 16 15 15 17 17 15 16 19 20 21 24 26 24 22 21
8 9 9 8 6 5 5 4 3 4 5 4 3 2 2 4 5 6 8 9 12 13 15 15 15 15 15 17 18 19 18 17 18 20 22 23 25 26 25 23 21 19 18 16 16 17 18 17 16 15 15 16 17 14 12 15 18 17 19 24 26 25 22
8 8 9 8 6 5 4 4 3 4 5 5 4 3 3 3 4 5 7 8 10 12 13 13 13 13 13 15 16 17 18 17 16 18 19 21 23 24 23 23 23 22 20 18 16 16 17 18 17 16 15 14 15 14 12 13 17 17 16 17 20 23 24
7 8 9 8 6 4 4 4 3 4 5 5 5 4 4 4 4 5 6 7 9 11 11 12 12 11 11 12 13 15 16 16 16 18 19 20 21 22 21 22 24 23 22 20 18 16 16 17 17 17 16 14 15 15 13 13 16 16 17 16 15 18 23
7 7 8 8 6 4 4 4 3 4 4 5 5 5 5 5 5 5 6 7 8 10 10 10 10 10 9 10 11 12 14 16 16 18 19 19 20 21 20 21 22 23 22 21 20 18 17 16 16 15 15 14 15 15 13 12 13 13 14 15 14 15 19
7 7 8 8 6 5 4 4 4 4 5 5 5 6 6 6 7 6 7 7 8 8 9 9 10 9 8 8 9 11 13 15 16 17 18 19 19 19 20 20 21 21 21 22 21 20 19 17 16 15 15 15 15 16 15 13 13 13 11 10 10 11 14
6 7 8 7 6 5 4 5 5 5 5 6 6 6 7 7 8 7 7 7 8 8 8 9 9 8 7 6 8 9 11 13 15 16 17 18 18 19 19 20 21 21 21 21 21 20 20 19 17 15 15 15 14 14 15 14 14 13 11 10 10 10 11
7 7 7 6 6 6 5 5 5 5 6 7 7 7 7 7 7 7 7 7 8 8 8 9 8 8 6 6 7 8 10 12 14 15 16 16 17 18 18 19 20 21 21 21 20 20 20 19 18 16 15 14 13 12 13 12 12 11 10 11 11 10 10
7 7 7 6 6 6 5 5 5 5 6 7 6 7 6 6 7 7 7 8 8 8 8 8 8 8 7 7 7 8 8 10 12 13 14 14 16 17 17 18 19 20 21 22 21 20 20 19 18 17 15 14 13 12 12 11 11 11 10 10 11 11 10
7 6 7 7 6 6 5 5 4 4 5 6 6 6 6 6 7 7 8 8 8 8 7 7 6 8 8 8 7 7 8 8 10 11 12 12 14 16 16 16 18 19 20 22 22 22 20 19 18 18 16 14 12 11 11 11 11 10 10 10 11 11 11
7 7 7 8 7 6 5 4 4 4 4 5 5 6 6 6 7 7 7 8 8 7 6 6 6 7 9 9 8 8 8 8 9 9 10 11 12 13 14 15 16 18 19 21 22 23 22 19 17 17 16 14 12 11 10 10 11 10 9 10 11 11 11
6 7 8 8 7 6 5 4 4 3 4 5 5 5 5 7 7 7 7 7 6 5 6 6 7 8 9 9 8 8 8 9 9 9 9 11 11 11 11 14 15 16 17 19 20 22 23 22 20 19 18 15 12 11 10 10 10 10 10 11 11 11 10
6 7 8 8 7 6 6 5 4 3 3 4 4 4 5 6 7 7 7 6 5 5 5 6 7 9 10 11 9 8 8 9 9 8 9 10 11 10 10 11 13 14 16 16 18 20 21 22 23 23 22 19 14 11 9 10 11 11 10 11 12 12 11
5 6 8 8 7 7 6 6 5 4 4 3 3 3 4 5 6 6 6 5 4 4 5 6 7 8 10 11 11 10 10 10 9 8 9 10 10 10 10 10 10 12 14 14 15 17 20 21 22 23 24 23 19 13 8 8 10 12 12 12 12 12 12
5 6 7 7 7 7 7 6 6 5 5 4 4 3 4 5 5 5 5 5 4 5 5 6 6 7 8 8 10 12 12 12 11 10 9 10 10 9 9 9 9 10 13 13 11 14 17 19 20 20 22 24 24 20 15 10 9 11 13 13 14 13 13
4 5 6 6 6 7 7 7 6 6 5 5 5 4 4 5 5 5 6 5 5 5 5 6 6 6 7 7 8 10 12 11 12 11 10 10 10 9 8 9 9 10 11 11 10 11 13 15 17 17 19 21 24 24 23 19 15 13 13 15 15 15 14
4 5 5 5 6 7 7 7 6 6 6 6 6 5 5 5 5 6 7 6 6 6 5 6 6 6 7 7 7 10 11 11 11 11 10 10 9 9 8 9 10 10 10 10 10 11 10 11 14 14 14 15 18 21 22 22 20 17 14 15 15 14 14
4 4 5 5 5 6 7 6 6 6 6 6 7 6 6 6 6 7 7 7 7 6 6 6 6 7 7 7 8 10 11 10 10 10 10 9 9 8 8 9 9 10 9 9 9 10 9 9 10 10 9 10 12 16 18 19 20 19 17 17 15 15 16
5 5 5 5 5 6 6 6 6 6 6 7 7 6 7 7 7 7 8 8 7 6 6 7 7 7 7 7 8 11 10 9 10 10 10 9 9 8 8 8 8 8 9 8 8 9 8 9 9 8 7 7 8 12 15 17 19 19 19 19 18 18 18
6 5 5 5 5 6 5 5 6 6 7 7 7 7 7 8 8 8 8 8 7 6 6 7 7 7 8 8 10 11 9 9 10 10 9 10 9 9 9 8 7 8 8 8 8 7 7 8 8 7 6 6 7 9 11 14 18 20 19 19 20 20 20
7 6 6 5 5 6 6 5 5 6 7 7 7 8 8 8 8 8 7 7 7 6 7 7 7 8 8 8 10 10 8 8 9 9 9 9 10 10 9 9 8 8 8 8 8 8 7 7 7 7 6 6 7 8 9 10 13 16 17 17 18 21 21
9 7 7 6 6 6 6 5 5 6 8 8 7 8 8 7 7 7 7 7 7 7 7 7 7 8 8 8 9 9 7 7 8 8 8 9 9 9 10 10 9 8 8 8 9 9 8 7 6 6 6 7 8 8 8 9 10 11 11 14 17 20 20
10 9 8 7 6 6 7 6 6 6 8 8 7 7 8 7 6 7 7 7 8 7 7 7 7 8 9 9 9 9 7 6 7 8 7 8 9 9 10 10 10 9 8 9 10 10 9 8 7 6 5 6 7 7 7 9 11 9 9 11 15 16 17
12 10 9 8 7 7 7 6 6 7 8 8 7 7 7 7 6 7 7 7 7 6 6 7 8 8 9 9 9 10 9 7 8 8 7 7 8 8 9 9 9 9 9 8 9 10 10 9 8 6 5 5 5 6 6 8 10 9 9 12 14 14 15
13 12 11 9 8 7 7 7 7 7 8 8 8 8 8 8 7 7 7 7 6 5 6 7 8 9 9 9 10 10 10 9 9 9 8 7 7 7 8 8 7 8 9 9 9 9 10 9 8 7 6 5 5 5 7 8 10 9 10 11 12 12 13
15 14 12 11 9 8 7 7 7 7 8 8 8 8 8 8 7 6 6 6 5 5 6 7 8 8 9 9 10 10 10 9 10 11 9 8 9 9 9 8 7 7 8 9 9 9 9 8 8 8 8 7 6 6 7 9 9 9 10 10 11 12 12
16 15 13 12 10 9 8 7 7 7 8 8 8 8 8 8 7 6 5 5 5 5 6 7 8 8 9 10 10 10 10 10 10 11 12 11 10 10 9 9 9 8 9 9 9 9 9 8 8 8 9 8 7 7 7 8 9 9 10 10 11 12 14
17 16 15 13 12 10 9 8 8 8 8 8 8 8 7 8 7 5 4 4 4 6 7 7 8 9 9 10 10 10 11 11 11 12 13 12 11 11 10 10 10 10 10 10 9 9 9 9 8 8 8 7 7 7 7 8 8 9 9 10 11 12 14
Wind_Direction
52 47 44 43 52 53 46 57 69 70 70 65 57 48 41 37 38 40 39 38 37 33 32 33 34 35 34 34 36 39 40 39 37 38 35 35 36 32 31 30 27 28 26 24 22 13 11 17 24 32 36 39 38 36 37 41 44 50 55 54 52 53 49
47 43 36 36 50 55 47 54 75 77 73 66 57 47 42 40 39 41 41 39 37 35 34 33 31 33 36 37 41 43 42 39 34 35 33 29 29 27 26 25 23 26 26 27 25 21 22 24 24 25 27 34 39 38 37 40 45 50 56 58 55 56 52
46 45 43 42 47 56 53 50 68 79 77 68 57 47 44 44 41 42 44 42 40 39 35 33 32 32 34 35 36 37 37 36 30 30 30 26 24 23 24 22 19 21 21 21 21 21 23 25 25 25 25 29 33 37 37 36 43 50 56 60 57 58 56
48 43 46 51 47 53 57 51 56 75 79 70 59 49 45 46 44 43 46 45 43 43 39 36 33 31 30 27 27 29 28 29 28 23 21 23 21 17 18 19 17 17 16 13 14 15 18 19 21 25 29 33 34 38 41 39 42 47 52 58 57 58 59
55 44 42 57 70 69 63 54 48 57 73 73 61 53 48 48 47 44 46 47 45 45 44 41 38 34 31 24 22 25 22 21 25 23 19 22 24 18 15 16 15 16 18 21 20 14 14 16 14 18 28 34 34 36 42 44 45 46 49 54 56 58 62
54 52 45 60 94 90 70 54 46 42 64 83 72 60 54 50 48 44 45 47 46 46 46 45 44 42 41 37 34 36 34 32 33 33 30 29 29 25 23 21 19 16 19 26 29 23 23 23 16 17 25 29 28 31 40 45 45 46 49 53 56 59 63
45 47 49 74 102 93 70 49 46 38 51 95 91 68 58 53 49 44 43 45 45 46 47 48 49 48 47 47 46 47 47 44 43 41 38 36 32 30 29 26 23 20 18 24 29 29 31 30 21 16 18 22 28 35 40 44 45 45 47 50 55 57 59
49 43 49 80 103 93 71 49 45 36 36 85 99 80 64 55 49 44 44 44 44 45 46 48 50 50 49 50 49 49 49 47 44 42 41 38 35 34 32 27 24 23 22 23 30 33 31 31 27 22 19 19 29 39 40 41 44 46 47 49 53 56 56
56 49 52 73 95 93 77 55 45 38 35 65 94 91 70 56 50 44 43 45 42 42 43 46 48 48 48 48 47 43 42 43 41 40 40 37 35 35 32 28 24 24 25 25 30 37 35 32 29 29 30 27 27 32 37 40 40 42 47 49 51 54 55
57 53 55 64 80 87 77 56 44 41 46 69 92 91 74 57 47 41 41 41 39 37 39 42 44 45 44 43 40 35 34 37 37 36 37 34 34 35 31 28 25 22 24 26 29 33 37 38 35 33 37 37 34 29 33 41 40 37 43 49 51 51 51
57 52 53 60 71 75 67 57 46 44 57 71 75 71 65 49 36 32 33 32 30 31 33 36 38 42 43 39 35 31 28 30 30 31 34 33 34 34 30 28 28 24 22 25 28 27 30 37 38 38 36 33 36 32 31 48 49 40 43 50 51 52 52
58 51 50 54 63 72 74 65 48 46 57 61 59 58 48 35 27 24 22 20 21 23 27 32 33 37 43 42 37 31 28 28 26 26 29 31 35 35 30 27 29 27 23 23 25 23 28 34 34 39 39 29 30 27 22 49 59 50 47 52 51 51 54
63 56 52 52 60 83 92 79 60 56 61 59 55 57 50 38 30 22 16 14 14 16 20 27 30 33 40 43 40 33 29 29 27 27 27 27 33 36 31 27 27 26 24 24 23 20 26 31 29 33 38 36 37 32 24 44 62 57 53 56 57 56 57
64 60 56 55 63 88 98 89 78 65 64 63 59 59 57 49 40 30 21 15 12 14 16 20 24 29 34 38 38 32 29 27 26 29 28 25 28 33 31 28 27 25 24 24 23 21 22 25 25 27 30 33 39 40 34 40 55 58 54 54 58 60 58
64 63 60 57 66 85 96 88 77 63 61 65 60 58 56 50 44 38 29 21 17 17 16 15 17 22 27 32 32 30 28 26 23 26 28 26 26 29 30 30 29 26 24 24 24 23 21 21 21 23 27 29 32 36 36 38 48 54 53 51 53 55 55
63 65 62 60 69 85 93 86 78 70 69 68 62 55 52 50 48 43 38 31 23 18 15 12 12 14 18 27 28 25 24 23 20 22 26 28 27 28 29 31 31 29 26 25 25 24 22 20 19 19 22 25 26 31 35 37 43 50 52 53 55 54 52
64 66 66 64 71 85 92 88 82 78 75 71 66 60 55 53 52 45 37 29 19 12 9 7 8 10 15 24 26 23 19 17 17 19 24 29 28 27 29 30 32 32 29 26 25 23 21 20 18 16 17 20 22 28 38 43 47 50 53 55 57 59 54
66 68 72 72 74 83 89 87 86 83 79 74 68 63 56 49 47 38 28 22 16 9 7 8 13 17 18 17 16 16 14 12 15 19 26 31 28 25 27 30 33 35 33 29 26 23 21 20 17 14 15 17 18 22 32 43 54 56 54 55 55 56 55
71 72 76 77 78 84 88 89 91 88 84 77 67 59 49 40 39 33 25 21 17 12 10 13 23 29 28 21 15 17 17 13 16 22 26 32 31 27 26 29 32 36 35 32 29 28 26 22 17 12 14 16 16 19 23 31 48 55 50 51 53 50 49
76 78 80 81 81 85 88 91 94 96 94 85 71 59 49 41 39 36 31 26 20 20 26 31 40 45 40 30 20 22 26 22 19 20 22 28 32 30 26 27 30 34 35 32 30 31 30 28 21 14 14 14 14 20 24 26 38 48 45 42 45 45 43
81 83 84 83 82 85 87 89 93 99 101 94 82 70 58 48 43 38 35 32 28 35 45 48 51 56 54 45 30 25 33 35 28 22 23 26 31 31 25 25 27 30 33 32 30 29 30 31 29 24 21 18 15 20 26 30 36 42 44 42 37 36 37
86 85 85 85 82 84 88 89 93 99 100 99 89 76 64 53 48 42 37 35 36 43 49 51 52 57 61 58 46 30 31 37 33 28 29 29 31 31 25 22 22 23 28 32 32 32 30 29 29 29 30 28 23 24 28 32 38 40 42 42 34 28 29
90 86 86 86 84 86 89 90 95 99 98 99 92 77 64 55 54 52 45 43 46 48 49 53 56 56 59 61 59 49 40 40 38 32 30 29 29 30 26 20 17 20 24 28 33 35 33 32 29 28 33 35 33 35 38 33 38 40 37 36 31 24 26
98 90 87 87 86 89 92 92 95 98 100 103 97 82 66 60 65 68 63 60 58 55 51 51 52 53 52 55 61 58 50 47 46 41 35 31 26 24 23 18 15 20 23 22 28 28 25 29 32 29 34 40 41 43 49 47 43 43 39 37 35 29 28
111 98 92 90 90 93 93 93 97 99 102 105 100 88 76 72 77 79 75 72 65 54 47 44 43 44 45 45 53 56 50 46 48 45 40 38 32 27 27 24 21 26 25 24 35 34 17 16 26 30 35 40 41 43 48 54 56 53 48 43 39 33 27
128 109 101 97 96 96 96 97 100 100 101 103 100 95 88 84 85 84 81 75 63 51 44 42 40 40 44 43 48 54 49 43 45 42 38 38 36 33 38 38 32 32 32 31 37 42 29 14 16 24 32 38 39 39 42 49 52 50 47 43 36 29 21
145 122 112 107 104 101 99 100 101 99 102 104 102 99 96 90 87 87 84 74 60 51 47 44 42 42 43 43 49 53 47 42 43 40 35 34 32 30 35 41 40 35 32 33 29 26 31 33 22 19 27 35 39 38 37 41 45 44 43 39 34 30 25
158 136 124 119 114 109 104 105 106 106 108 110 108 106 102 96 91 87 85 77 63 52 48 44 41 43 43 45 55 53 44 42 43 39 37 36 32 31 32 35 42 38 27 30 28 14 24 42 33 18 21 30 36 40 39 39 39 39 39 38 37 36 33
166 149 137 131 126 119 114 113 115 116 116 114 112 110 104 100 96 90 85 79 65 49 47 45 43 45 46 53 63 55 41 42 46 40 41 42 36 34 33 29 34 40 33 33 32 22 34 52 41 20 17 24 30 37 38 37 35 36 38 39 39 38 37
172 158 147 145 141 132 127 126 123 123 121 119 117 113 106 100 98 93 88 84 72 54 47 45 45 48 47 55 67 60 40 40 48 41 38 43 41 35 34 34 36 41 43 43 41 38 46 58 46 26 21 25 29 34 35 31 30 35 41 42 39 36 36
176 167 160 159 155 143 136 134 131 128 126 124 123 116 107 99 96 93 87 83 77 61 46 41 43 48 46 50 64 64 44 37 50 47 35 35 40 38 36 38 41 45 49 49 48 48 49 56 55 40 30 29 30 33 35 33 31 35 42 42 37 33 32
180 175 171 170 165 153 145 141 138 133 127 123 122 116 109 102 97 93 84 76 72 61 46 39 41 47 47 46 57 68 64 50 52 52 42 36 37 37 39 39 39 45 53 54 55 53 50 55 63 58 49 46 41 36 33 35 38 40 41 40 38 34 31
185 180 180 179 173 162 153 150 146 138 128 125 128 124 117 110 100 90 81 73 68 59 48 44 42 47 50 48 52 64 72 71 61 52 45 43 40 35 39 40 38 43 51 55 59 58 53 55 61 63 66 71 64 52 38 32 37 42 45 43 40 34 28
188 186 187 183 177 170 162 158 152 143 133 130 132 128 118 109 97 87 80 75 69 58 51 50 47 48 51 52 54 60 66 73 75 67 52 48 49 45 44 45 41 44 49 52 56 58 54 54 61 68 74 75 69 58 46 34 28 31 40 42 39 37 32
191 191 192 187 180 175 170 165 159 149 140 135 132 126 118 110 99 89 82 76 67 58 53 52 52 52 53 54 56 60 63 67 76 78 72 62 59 56 52 50 48 48 49 49 51 53 52 52 59 68 70 68 67 63 52 39 28 29 41 45 41 42 40
194 193 195 191 184 178 176 173 165 154 147 141 133 125 121 117 107 93 84 76 66 60 58 55 54 56 58 59 57 60 64 64 67 74 75 70 64 60 55 53 52 50 50 47 44 46 47 47 53 59 59 57 60 63 56 44 36 39 47 48 45 44 42
197 195 196 194 187 181 179 176 169 160 153 145 137 131 128 122 111 100 93 85 73 68 64 60 59 59 60 61 60 59 62 63 64 69 71 67 63 61 57 54 51 50 50 46 42 43 44 43 44 48 47 46 54 64 64 54 47 45 45 45 44 41 40